Location: Unspecified
(0.0000°N, 0.0000°E)
Time: 17:55:26
(UTC+02:00)

ISS - All Passes

Search period start: 01 August 2014 00:00
Search period end: 11 August 2014 00:00
Orbit: 411 x 419 km, 51.6° (Epoch: 01 August)

Date Brightness Start Highest point End Pass type
(mag) Time Alt. Az. Time Alt. Az. Time Alt. Az.
01 Aug - 09:17:12 10° NW 09:20:26 48° SW 09:23:41 10° SSE daylight
01 Aug - 20:52:46 10° SW 20:56:04 80° NW 20:59:22 10° NNE visible
02 Aug - 08:28:21 10° NNW 08:31:39 61° NE 08:34:57 10° SE daylight
02 Aug - 20:04:12 10° SSW 20:07:17 37° SE 20:10:21 10° ENE daylight
03 Aug - 07:40:05 10° N 07:42:51 24° NE 07:45:37 10° ESE visible
03 Aug - 09:18:41 10° WSW 09:19:22 11° SW 09:20:03 10° SW daylight
03 Aug - 19:16:21 10° SSE 19:18:28 16° SE 19:20:34 10° E daylight
03 Aug - 20:52:56 10° W 20:54:58 15° NW 20:57:00 10° NNW visible
04 Aug - 06:53:09 10° NE 06:54:01 11° NE 06:54:53 10° ENE visible
04 Aug - 08:27:47 10° WNW 08:30:32 23° SW 08:33:17 10° S daylight
04 Aug - 20:03:06 10° WSW 20:06:09 35° NW 20:09:12 10° NNE daylight
05 Aug - 07:38:25 10° NW 07:41:43 59° SW 07:45:01 10° SSE visible
05 Aug - 19:14:02 10° SSW 19:17:20 83° SE 19:20:38 10° NE daylight
06 Aug - 06:49:39 10° NNW 06:52:53 49° NE 06:56:09 10° SE visible
06 Aug - 18:25:33 10° S 18:28:31 30° SE 18:31:28 10° ENE daylight
07 Aug - 06:01:29 10° N 06:04:03 20° NE 06:06:37 10° ESE visible
07 Aug - 07:39:04 10° W 07:40:34 12° SW 07:42:04 10° SSW visible
07 Aug - 17:37:56 10° SSE 17:39:39 14° SE 17:41:22 10° E daylight
07 Aug - 19:13:49 10° W 19:16:10 18° NW 19:18:30 10° N daylight
08 Aug - 06:48:47 10° WNW 06:51:42 28° SW 06:54:38 10° S visible
08 Aug - 18:24:10 10° SW 18:27:19 43° NW 18:30:28 10° NNE daylight
09 Aug - 05:59:31 10° NW 06:02:51 73° SW 06:06:11 10° SSE night (unlit)
09 Aug - 17:35:11 10° SSW 17:38:28 67° SE 17:41:44 10° NE daylight
10 Aug - 05:10:50 10° NNW 05:14:00 40° NE 05:17:10 10° SE night (unlit)
10 Aug - 16:46:48 10° S 16:49:36 25° SE 16:52:24 10° ENE daylight
